Date String (YYYY-MM-DD hh:mm:ss) UTC,Instrument flags,Ambient pressure (hPa),Sample flow (lpm),Bypass flow (lpm),Sample temperature (°C),Ambient temperature (°C),ASC tube jacket temperature (°C),LED temperature (°C),Box temperature (°C),Sample RH (%),Span deviation,Mass concentration (μg/m³),Mass concentration (μg/m³),Mass concentration (μg/m³)
DateTimeUTC,F1_M11,P_M11,Q1_M11,Q2_M11,T1_M11,T2_M11,T3_M11,T4_M11,T5_M11,U1_M11,ZSPAN_M11,X0_M11,X2_M11,X1_M11
2021-12-25 17:00:00,,0819.1,4.98,0.00,21.8,21.1,00.0,30.7,23.5,16.7,0000.0,0001.67,0000.47,0000.31
2021-12-25 17:01:00,,0819.2,5.01,0.00,21.8,21.1,00.0,30.7,23.6,16.4,0000.0,0001.72,0000.49,0000.31
2021-12-25 17:02:00,,0819.2,4.98,0.00,21.9,21.2,00.0,30.8,23.6,17.0,0000.0,0001.79,0000.52,0000.32
2021-12-25 17:03:00,,0819.1,5.01,0.00,21.9,21.2,00.0,30.8,23.6,17.0,0000.0,0001.81,0000.53,0000.32
2021-12-25 17:04:00,,0819.2,5.01,0.00,21.9,21.2,00.0,30.8,23.6,16.7,0000.0,0001.70,0000.54,0000.33
2021-12-25 17:05:00,,0819.1,4.99,0.00,21.9,21.2,00.0,30.8,23.6,16.9,0000.0,0001.47,0000.58,0000.34
2021-12-25 17:06:00,,0819.1,5.01,0.00,21.9,21.2,00.0,30.8,23.6,16.0,0000.0,0001.49,0000.59,0000.34
2021-12-25 17:07:00,,0819.1,4.98,0.00,21.9,21.2,00.0,30.8,23.6,16.3,0000.0,0001.43,0000.57,0000.34
2021-12-25 17:08:00,,0819.2,5.01,0.00,22.0,21.2,00.0,30.8,23.7,16.1,0000.0,0001.36,0000.53,0000.34
2021-12-25 17:09:00,,0819.1,5.01,0.00,22.0,21.2,00.0,30.9,23.7,16.2,0000.0,0001.36,0000.53,0000.34
2021-12-25 17:10:00,,0819.1,5.00,0.00,22.0,21.2,00.0,30.9,23.7,16.5,0000.0,0001.19,0000.57,0000.35
2021-12-25 17:11:00,,0819.1,4.99,0.00,22.0,21.3,00.0,30.9,23.8,16.2,0000.0,0001.04,0000.57,0000.37
2021-12-25 17:12:00,,0819.1,5.03,0.00,22.0,21.3,00.0,30.9,23.8,16.1,0000.0,0001.01,0000.57,0000.37
2021-12-25 17:13:00,,0819.1,4.99,0.00,22.1,21.3,00.0,30.9,23.8,15.9,0000.0,0001.07,0000.55,0000.37
2021-12-25 17:14:00,,0819.1,4.99,0.00,22.1,21.3,00.0,30.9,23.9,15.7,0000.0,0001.19,0000.58,0000.39
2021-12-25 17:15:00,,0819.1,5.00,0.00,22.1,21.3,00.0,31.0,23.9,15.3,0000.0,0001.26,0000.58,0000.39
2021-12-25 17:16:00,,0819.1,5.00,0.00,22.1,21.3,00.0,31.0,23.9,15.2,0000.0,0001.11,0000.56,0000.39
2021-12-25 17:17:00,,0819.1,5.01,0.00,22.1,21.3,00.0,31.0,23.9,15.3,0000.0,0001.06,0000.55,0000.39
2021-12-25 17:18:00,,0819.1,4.99,0.00,22.2,21.3,00.0,31.0,23.9,15.0,0000.0,0001.13,0000.57,0000.40
2021-12-25 17:19:00,,0819.1,4.99,0.00,22.2,21.4,00.0,31.0,24.0,14.8,0000.0,0001.27,0000.60,0000.40
2021-12-25 17:20:00,,0819.1,5.01,0.00,22.2,21.4,00.0,31.0,23.9,14.9,0000.0,0001.29,0000.60,0000.39
2021-12-25 17:21:00,,0819.1,5.00,0.00,22.2,21.4,00.0,31.1,24.0,15.1,0000.0,0001.26,0000.58,0000.39
2021-12-25 17:22:00,,0819.1,5.00,0.00,22.2,21.4,00.0,31.1,24.0,14.7,0000.0,0001.21,0000.55,0000.37
2021-12-25 17:23:00,,0819.1,5.00,0.00,22.3,21.5,00.0,31.1,24.0,14.6,0000.0,0001.17,0000.54,0000.36
2021-12-25 17:24:00,,0819.1,4.99,0.00,22.3,21.5,00.0,31.1,24.1,15.1,0000.0,0001.10,0000.52,0000.36
2021-12-25 17:25:00,,0819.2,5.00,0.00,22.3,21.5,00.0,31.1,24.1,15.3,0000.0,0000.97,0000.50,0000.35
2021-12-25 17:26:00,,0819.2,5.00,0.00,22.3,21.5,00.0,31.2,24.1,15.0,0000.0,0000.87,0000.49,0000.35
2021-12-25 17:27:00,,0819.3,5.00,0.00,22.3,21.5,00.0,31.2,24.1,15.2,0000.0,0000.88,0000.49,0000.35
2021-12-25 17:28:00,,0819.4,5.01,0.00,22.4,21.5,00.0,31.2,24.1,15.1,0000.0,0000.92,0000.50,0000.35
2021-12-25 17:29:00,,0819.3,4.99,0.00,22.4,21.6,00.0,31.2,24.1,14.8,0000.0,0000.90,0000.50,0000.34
2021-12-25 17:30:00,,0819.2,5.00,0.00,22.4,21.6,00.0,31.2,24.2,14.9,0000.0,0000.80,0000.49,0000.35
2021-12-25 17:31:00,,0819.1,5.01,0.00,22.4,21.6,00.0,31.3,24.2,14.7,0000.0,0000.80,0000.50,0000.35
2021-12-25 17:32:00,,0819.1,4.98,0.00,22.4,21.6,00.0,31.3,24.2,14.7,0000.0,0000.90,0000.53,0000.35
2021-12-25 17:33:00,,0819.1,4.99,0.00,22.5,21.7,00.0,31.3,24.2,14.5,0000.0,0001.02,0000.57,0000.36
2021-12-25 17:34:00,,0819.1,5.01,0.00,22.5,21.7,00.0,31.3,24.3,13.3,0000.0,0001.06,0000.59,0000.36
2021-12-25 17:35:00,,0819.2,4.99,0.00,22.5,21.7,00.0,31.3,24.3,13.6,0000.0,0001.07,0000.59,0000.36
2021-12-25 17:36:00,,0819.1,5.01,0.00,22.5,21.7,00.0,31.3,24.3,14.8,0000.0,0001.07,0000.60,0000.36
2021-12-25 17:37:00,,0819.2,4.99,0.00,22.6,21.7,00.0,31.4,24.3,14.4,0000.0,0001.07,0000.60,0000.37
2021-12-25 17:38:00,,0819.3,5.02,0.00,22.6,21.7,00.0,31.4,24.3,15.4,0000.0,0001.04,0000.59,0000.37
2021-12-25 17:39:00,,0819.3,4.99,0.00,22.6,21.7,00.0,31.4,24.3,15.6,0000.0,0000.99,0000.58,0000.36
2021-12-25 17:40:00,,0819.3,5.01,0.00,22.6,21.7,00.0,31.4,24.3,14.8,0000.0,0001.01,0000.58,0000.36
2021-12-25 17:41:00,,0819.3,5.00,0.00,22.6,21.7,00.0,31.4,24.4,14.2,0000.0,0001.09,0000.58,0000.36
2021-12-25 17:42:00,,0819.3,5.01,0.00,22.6,21.8,00.0,31.5,24.4,14.2,0000.0,0001.19,0000.62,0000.37
2021-12-25 17:43:00,,0819.2,4.99,0.00,22.6,21.8,00.0,31.5,24.4,14.4,0000.0,0001.18,0000.61,0000.37
2021-12-25 17:44:00,,0819.2,4.99,0.00,22.7,21.8,00.0,31.5,24.5,14.1,0000.0,0001.08,0000.57,0000.37
2021-12-25 17:45:00,,0819.2,5.01,0.00,22.7,21.8,00.0,31.5,24.5,13.6,0000.0,0001.03,0000.55,0000.36
2021-12-25 17:46:00,,0819.1,5.00,0.00,22.7,21.9,00.0,31.5,24.6,13.5,0000.0,0001.03,0000.55,0000.36
2021-12-25 17:47:00,,0819.2,4.99,0.00,22.7,21.9,00.0,31.6,24.5,13.5,0000.0,0001.03,0000.55,0000.36
2021-12-25 17:48:00,,0819.2,5.01,0.00,22.7,21.9,00.0,31.6,24.6,13.6,0000.0,0001.07,0000.57,0000.36
2021-12-25 17:49:00,,0819.1,5.00,0.00,22.8,21.9,00.0,31.6,24.6,13.6,0000.0,0001.07,0000.57,0000.36
2021-12-25 17:50:00,,0819.2,5.01,0.00,22.8,22.0,00.0,31.6,24.6,13.3,0000.0,0001.09,0000.57,0000.37
2021-12-25 17:51:00,,0819.1,5.00,0.00,22.8,22.0,00.0,31.6,24.6,13.4,0000.0,0001.08,0000.57,0000.37
2021-12-25 17:52:00,,0819.0,5.00,0.00,22.8,22.0,00.0,31.6,24.6,12.5,0000.0,0000.95,0000.55,0000.37
2021-12-25 17:53:00,,0819.0,5.01,0.00,22.8,22.0,00.0,31.7,24.6,12.3,0000.0,0000.91,0000.53,0000.37
2021-12-25 17:54:00,,0819.0,5.00,0.00,22.9,22.0,00.0,31.7,24.6,12.1,0000.0,0000.87,0000.51,0000.36
2021-12-25 17:55:00,,0819.0,4.99,0.00,22.9,22.0,00.0,31.7,24.7,12.0,0000.0,0000.87,0000.51,0000.36
2021-12-25 17:56:00,,0818.9,5.00,0.00,22.9,22.0,00.0,31.7,24.7,12.1,0000.0,0000.87,0000.51,0000.35
2021-12-25 17:57:00,,0818.9,5.01,0.00,22.9,22.0,00.0,31.7,24.7,12.3,0000.0,0001.27,0000.52,0000.35
2021-12-25 17:58:00,,0818.9,4.99,0.00,22.9,22.0,00.0,31.7,24.8,12.3,0000.0,0001.47,0000.53,0000.35
2021-12-25 17:59:00,,0818.9,5.01,0.00,22.9,22.1,00.0,31.8,24.8,12.4,0000.0,0001.42,0000.50,0000.35
